Location: Marse
(42.1502°N, 110.9866°W)
Time: 09:29:25
(UTC+00:00)

Oscar 19 - Pass Details

Date: 09 July 2022
Orbit: 773 x 790 km, 98.8° (Epoch: 13 August)

Event Time Altitude Azimuth Distance (km) Brightness Sun altitude
Rises 09:30:56 0° 35° (NE) 3,257 15.5 -19.7°
Reaches altitude 10° 09:34:46 10° 65° (ENE) 2,324 13.9 -19.3°
Maximum altitude 09:36:54 13° 89° (E) 2,150 13.3 -19.1°
Drops below altitude 10° 09:39:01 10° 114° (ESE) 2,319 13.2 -18.9°
Sets 09:42:48 0° 143° (SE) 3,243 13.6 -18.5°
